Weather History for West Vancouver, BC

Change the Weather History Date:

Friday, November 30, 2012

  Actual Average Record
Temperature  
Mean Temperature 49 °F -  
Max Temperature 52 °F - - ()
Min Temperature 46 °F - - ()
Degree Days  
Heating Degree Days 16    
Moisture  
Dew Point 44 °F    
Average Humidity 85    
Maximum Humidity 95    
Minimum Humidity 66    
Precipitation  
Precipitation 0.20 in - - ()
Sea Level Pressure  
Sea Level Pressure 29.37 in    
Wind  
Wind Speed 6 mph ()    
Max Wind Speed 9 mph    
Max Gust Speed 20 mph    
T = Trace of Precipitation, MM = Missing Value Source: Averaged Metar Reports

Daily Weather History Graph

Daily Weather History Graph

Search for Another Location

Airport:

Trip Planner

Search our weather history database for the weather conditions in past years. The results will help you decide how hot, cold, wet, or windy it might be!

Date:

Astronomy

Nov. 30, 2012 Rise Set
Actual Time 7:46 AM PST 4:16 PM PST
Civil Twilight 7:09 AM PST 4:53 PM PST
Nautical Twilight 6:29 AM PST 5:33 PM PST
Astronomical Twilight 5:51 AM PST 6:11 PM PST
Moon 6:18 PM PST (11/30) 9:21 AM PST (11/30)
Length of Visible Light 9h 43m
Length of Day
8h 30m
Waning Gibbous, 96% of the Moon is Illuminated
Nov 30
Waning Gibbous
Dec 6
Last Quarter
Dec 13
New
Dec 19
First Quarter
Dec 28
Full

Hourly Weather History & Observations

Time (PST) Temp. Dew Point Humidity Pressure Visibility Wind Dir Wind Speed Gust Speed Precip Events Conditions
12:00 AM 50.7 °F 41.9 °F 72% 29.42 in - ENE 8.1 mph - N/A   Unknown
1:00 AM 52.0 °F 41.0 °F 66% 29.39 in - ENE 8.1 mph - N/A   Unknown
2:00 AM 51.6 °F 41.7 °F 69% 29.38 in - ENE 6.9 mph - N/A   Unknown
3:00 AM 51.1 °F 42.1 °F 71% 29.37 in - ENE 8.1 mph - 0.02 in   Unknown
4:00 AM 50 °F 42 °F 67% 29.35 in - East 5.8 mph - -  
4:00 AM 50.2 °F 42.3 °F 74% 29.35 in - East 5.8 mph - N/A   Unknown
5:00 AM 48.4 °F 43.2 °F 82% 29.35 in - East 8.1 mph 19.6 mph 0.01 in   Unknown
6:00 AM 47.3 °F 43.3 °F 86% 29.34 in - ENE 8.1 mph - 0.06 in   Unknown
7:00 AM 48.9 °F 43.2 °F 80% 29.33 in - ENE 8.1 mph - N/A   Unknown
8:00 AM 49.5 °F 43.9 °F 81% 29.33 in - ENE 8.1 mph 17.3 mph N/A   Unknown
9:00 AM 47.7 °F 45.1 °F 91% 29.36 in - ENE 4.6 mph - 0.11 in   Unknown
10:00 AM 47 °F 45 °F 89% 29.37 in - ENE 6.9 mph - -  
10:00 AM 47.1 °F 44.8 °F 92% 29.37 in - ENE 6.9 mph - 0.03 in   Unknown
11:00 AM 46.8 °F 45.0 °F 93% 29.39 in - ENE 3.5 mph - 0.10 in   Unknown
12:00 PM 47.5 °F 45.3 °F 92% 29.38 in - East 4.6 mph - 0.06 in   Unknown
1:00 PM 47.8 °F 46.0 °F 93% 29.38 in - ENE 6.9 mph - 0.03 in   Unknown
2:00 PM 47.8 °F 46.0 °F 93% 29.38 in - East 3.5 mph - 0.01 in   Unknown
3:00 PM 48.4 °F 46.0 °F 92% 29.38 in - East 5.8 mph - N/A   Unknown
4:00 PM 49 °F 47 °F 88% 29.39 in - ENE 3.5 mph - -  
4:00 PM 48.7 °F 46.6 °F 92% 29.39 in - ENE 3.5 mph - N/A   Unknown
5:00 PM 48.9 °F 46.2 °F 90% 29.39 in - ENE 5.8 mph - N/A   Unknown
6:00 PM 48.6 °F 46.2 °F 92% 29.39 in - ENE 6.9 mph - N/A   Unknown
7:00 PM 47.8 °F 46.4 °F 95% 29.39 in - East 4.6 mph - 0.08 in   Unknown
8:00 PM 47.3 °F 45.5 °F 93% 29.38 in - East 6.9 mph - 0.04 in   Unknown
9:00 PM 46.9 °F 44.8 °F 92% 29.37 in - East 9.2 mph 18.4 mph 0.01 in   Unknown
10:00 PM 47 °F 44 °F 84% 29.37 in - East 9.2 mph - -  
10:00 PM 46.6 °F 43.7 °F 90% 29.37 in - East 9.2 mph 18.4 mph 0.03 in   Unknown
11:00 PM 46.8 °F 42.8 °F 86% 29.37 in - ENE 8.1 mph - 0.02 in   Unknown